Showing default

QIANFAN-200, 69418

Orbit data source: Space-Track

QIANFAN-200, 69418 is a Chinese payload satellite in LEO that was launched on Fri, 05 Jun 2026 UTC via a CHANG ZHENG 8 launch vehicle from the Wenchang Satellite Launch Center (WSC). Payload-class satellites include a variety of spacecraft equipped with specific instruments for various scientific and technological missions. These include communications satellites like Starlink; space stations such as the ISS; scientific satellites like the Hubble; Earth observation satellites from companies like Planet Labs, Umbra, and HawkEye 360; GPS; miniature CubeSats for education and research; and military/defense satellites.

Loading next visibility...
Identifier
69418, 2026-125T
Orbit
LEO
Country
Flag of CNCN / PRC
Related business
Manufacturer
SECM?
Mission
Operational spacecraft
Bus & Motor
QIANFAN, Unknown motor
Mass
267 kg wet, ~267 kg dry
Launch date (UTC)
2026-06-05 (2 weeks ago)
Launch vehicle
CHANG ZHENG 8
Launch site
Wenchang Satellite Launch Center (WSC)
Object type
Payload
Rocket body
Debris
Shape & HBR
Unknown
Radar Cross Section
Large (>1 m²)

Expand to show TLE details & history
Last TLE update: 1 day ago

TLE from 1 day ago
0 QIANFAN-200
1 69418U 26125T   26170.85805584 -.01893052  00000-0 -10402+1 0  9990
2 69418  88.9946 280.1421 0014564 173.5980 186.5397 14.15539357  2087
Epoch: 2026-06-19T20:35Z
TLE epoch observation values (Epoch: 2026-06-19T20:35:36.024Z)
Latitude
0.00003°
Longitude
63.161°
Altitude
853.972 km
Speed
7.42 km/s
True Right ascension
18h 40m 34s
True Declination
0° 00' 00"
Sunlit
Object was in full shadow at epoch
Visualization orbit readout
Latitude
Unknown
Longitude
Unknown
Altitude
Unknown
Speed
Unknown
Apparent Right ascension
Unknown
Apparent Declination
Unknown
Sunlit
N/A
Visualization observer readout
Local Sidereal Time
07:12:53
Azimuth
Unknown
Elevation
Unknown
Doppler factor
Unknown
Orbital elements
Apogee altitude
847.944 km
Perigee altitude
826.927 km
Semi-major axis
7,215.573 km
Eccentricity
0.00146
Inclination
88.9946°
RAAN
280.1421°
Arg. of periapsis
173.598°
True anomaly
186.52073°
Mean anomaly
186.5397°
Eccentric anomaly
186.53021°
Mean motion
3.54109 °/min
Orbital period
101.66 mins
BSTAR
-1.0402
Loading maneuver chart data...
Computing Atmospheric mass density...
Loading historical data...
Loading historical data...
Loading historical data...
Loading historical data...
Loading historical data...
Loading historical data...
Loading historical data...

Documentation

Showing up to 5 results
|